Meteo orario Aleksandrovka

Oggi, 29 Settembre, Martedi

Tempo Temperatura Precipitazioni Vento Pressione Umidità
00:00 +16°C° 0 mm 5 m/s 753 mm Hg 42%
01:00 +16°C° 0 mm 5 m/s 753 mm Hg 43%
02:00 +15°C° 0 mm 4 m/s 753 mm Hg 44%
03:00 +14°C° 0 mm 5 m/s 752 mm Hg 47%
04:00 +14°C° 0 mm 6 m/s 752 mm Hg 50%
05:00 +14°C° 0 mm 6 m/s 752 mm Hg 53%
06:00 +14°C° 0 mm 6 m/s 752 mm Hg 52%
07:00 +15°C° 0 mm 6 m/s 752 mm Hg 52%
08:00 +15°C° 0 mm 7 m/s 752 mm Hg 53%
09:00 +17°C° 0 mm 7 m/s 751 mm Hg 50%
10:00 +18°C° 0 mm 7 m/s 751 mm Hg 47%
11:00 +21°C° 0 mm 7 m/s 751 mm Hg 44%
12:00 +22°C° 0.2 mm 7 m/s 750 mm Hg 43%
13:00 +22°C° 0.2 mm 7 m/s 750 mm Hg 41%
14:00 +22°C° 0.2 mm 7 m/s 750 mm Hg 40%
15:00 +22°C° 0.2 mm 6 m/s 749 mm Hg 40%
16:00 +21°C° 0.2 mm 5 m/s 749 mm Hg 40%
17:00 +20°C° 0.2 mm 4 m/s 748 mm Hg 40%
18:00 +20°C° 0 mm 5 m/s 748 mm Hg 38%
19:00 +20°C° 0 mm 6 m/s 748 mm Hg 36%
20:00 +20°C° 0 mm 6 m/s 748 mm Hg 34%
21:00 +20°C° 0 mm 7 m/s 747 mm Hg 34%
22:00 +20°C° 0 mm 7 m/s 747 mm Hg 34%
23:00 +20°C° 0 mm 8 m/s 746 mm Hg 35%

Domani, 30 Settembre, Mercoledi

Tempo Temperatura Precipitazioni Vento Pressione Umidità
00:00 +18°C° 0 mm 8 m/s 746 mm Hg 37%
01:00 +17°C° 0 mm 8 m/s 746 mm Hg 40%
02:00 +17°C° 0 mm 8 m/s 746 mm Hg 43%
03:00 +16°C° 0 mm 8 m/s 745 mm Hg 44%
04:00 +15°C° 0 mm 9 m/s 745 mm Hg 44%
05:00 +13°C° 0 mm 9 m/s 745 mm Hg 45%
06:00 +13°C° 0 mm 9 m/s 745 mm Hg 45%
07:00 +15°C° 0 mm 9 m/s 745 mm Hg 46%
08:00 +14°C° 0 mm 10 m/s 745 mm Hg 46%
09:00 +16°C° 0 mm 10 m/s 745 mm Hg 43%
10:00 +18°C° 0 mm 10 m/s 745 mm Hg 40%
11:00 +19°C° 0 mm 10 m/s 745 mm Hg 37%
12:00 +19°C° 0.3 mm 9 m/s 744 mm Hg 41%
13:00 +18°C° 0.3 mm 9 m/s 744 mm Hg 45%
14:00 +18°C° 0.3 mm 8 m/s 744 mm Hg 49%
15:00 +17°C° 0.5 mm 6 m/s 744 mm Hg 50%
16:00 +18°C° 0.5 mm 4 m/s 744 mm Hg 51%
17:00 +18°C° 0.5 mm 2 m/s 744 mm Hg 52%
18:00 +18°C° 0.5 mm 4 m/s 744 mm Hg 50%
19:00 +17°C° 0.5 mm 6 m/s 744 mm Hg 49%
20:00 +17°C° 0.5 mm 8 m/s 744 mm Hg 47%
21:00 +17°C° 0.1 mm 8 m/s 745 mm Hg 49%
22:00 +17°C° 0.1 mm 8 m/s 745 mm Hg 52%
23:00 +17°C° 0.1 mm 8 m/s 745 mm Hg 54%

Dopodomani, 1 Ottobre, Giovedi

Tempo Temperatura Precipitazioni Vento Pressione Umidità
00:00 +16°C° 0 mm 8 m/s 745 mm Hg 53%
01:00 +15°C° 0 mm 7 m/s 746 mm Hg 52%
02:00 +14°C° 0 mm 7 m/s 746 mm Hg 51%
03:00 +14°C° 0 mm 6 m/s 746 mm Hg 53%
04:00 +14°C° 0 mm 6 m/s 746 mm Hg 54%
05:00 +13°C° 0 mm 6 m/s 747 mm Hg 55%
06:00 +14°C° 0 mm 7 m/s 747 mm Hg 55%
07:00 +15°C° 0 mm 7 m/s 747 mm Hg 54%
08:00 +15°C° 0 mm 7 m/s 747 mm Hg 53%
09:00 +16°C° 0 mm 7 m/s 747 mm Hg 51%
10:00 +17°C° 0 mm 7 m/s 748 mm Hg 49%
11:00 +17°C° 0 mm 7 m/s 748 mm Hg 47%
12:00 +18°C° 0 mm 7 m/s 747 mm Hg 45%
13:00 +20°C° 0 mm 7 m/s 747 mm Hg 43%
14:00 +20°C° 0 mm 7 m/s 747 mm Hg 42%
15:00 +19°C° 0 mm 6 m/s 747 mm Hg 45%
16:00 +17°C° 0 mm 5 m/s 747 mm Hg 48%
17:00 +18°C° 0 mm 4 m/s 747 mm Hg 52%
18:00 +18°C° 0 mm 4 m/s 747 mm Hg 49%
19:00 +18°C° 0 mm 4 m/s 747 mm Hg 46%
20:00 +18°C° 0 mm 4 m/s 748 mm Hg 43%
21:00 +17°C° 0 mm 5 m/s 748 mm Hg 45%
22:00 +17°C° 0 mm 6 m/s 747 mm Hg 47%
23:00 +17°C° 0 mm 7 m/s 747 mm Hg 49%

2 Ottobre, Venerdi

Tempo Temperatura Precipitazioni Vento Pressione Umidità
00:00 +16°C° 0.1 mm 7 m/s 748 mm Hg 48%
01:00 +16°C° 0.1 mm 6 m/s 748 mm Hg 47%
02:00 +16°C° 0.1 mm 6 m/s 748 mm Hg 47%
03:00 +15°C° 0.1 mm 6 m/s 748 mm Hg 49%
04:00 +15°C° 0.1 mm 5 m/s 748 mm Hg 52%
05:00 +14°C° 0.1 mm 5 m/s 748 mm Hg 55%
06:00 +14°C° 0 mm 6 m/s 748 mm Hg 54%
07:00 +14°C° 0 mm 6 m/s 748 mm Hg 54%
08:00 +15°C° 0 mm 7 m/s 748 mm Hg 53%
09:00 +15°C° 0.4 mm 6 m/s 748 mm Hg 53%
10:00 +16°C° 0.4 mm 5 m/s 748 mm Hg 53%
11:00 +16°C° 0.4 mm 5 m/s 748 mm Hg 53%
12:00 +17°C° 0.2 mm 5 m/s 748 mm Hg 52%
13:00 +19°C° 0.2 mm 4 m/s 748 mm Hg 50%
14:00 +20°C° 0.2 mm 4 m/s 748 mm Hg 48%
15:00 +18°C° 0.5 mm 3 m/s 748 mm Hg 59%
16:00 +17°C° 0.5 mm 3 m/s 748 mm Hg 69%
17:00 +15°C° 0.5 mm 2 m/s 748 mm Hg 79%
18:00 +16°C° 0.3 mm 3 m/s 749 mm Hg 80%
19:00 +16°C° 0.3 mm 3 m/s 749 mm Hg 80%
20:00 +16°C° 0.3 mm 3 m/s 750 mm Hg 81%
21:00 +16°C° 0.5 mm 3 m/s 750 mm Hg 80%
22:00 +16°C° 0.5 mm 3 m/s 750 mm Hg 80%
23:00 +16°C° 0.5 mm 3 m/s 750 mm Hg 79%

3 Ottobre, Sabato

Tempo Temperatura Precipitazioni Vento Pressione Umidità
00:00 +16°C° 0.1 mm 3 m/s 750 mm Hg 76%
01:00 +16°C° 0.1 mm 3 m/s 750 mm Hg 73%
02:00 +16°C° 0.1 mm 2 m/s 750 mm Hg 70%
03:00 +15°C° 0 mm 2 m/s 750 mm Hg 71%
04:00 +14°C° 0 mm 2 m/s 750 mm Hg 72%
05:00 +14°C° 0 mm 2 m/s 750 mm Hg 72%
06:00 +15°C° 0 mm 2 m/s 751 mm Hg 70%
07:00 +16°C° 0 mm 3 m/s 751 mm Hg 67%
08:00 +16°C° 0 mm 3 m/s 751 mm Hg 65%
09:00 +18°C° 0 mm 3 m/s 751 mm Hg 61%
10:00 +19°C° 0 mm 2 m/s 751 mm Hg 58%
11:00 +20°C° 0 mm 2 m/s 752 mm Hg 54%
12:00 +20°C° 0 mm 2 m/s 752 mm Hg 53%
13:00 +21°C° 0 mm 2 m/s 751 mm Hg 51%
14:00 +22°C° 0 mm 1 m/s 751 mm Hg 50%
15:00 +20°C° 0 mm 2 m/s 751 mm Hg 51%
16:00 +19°C° 0 mm 3 m/s 751 mm Hg 51%
17:00 +18°C° 0 mm 3 m/s 751 mm Hg 52%
18:00 +17°C° 0 mm 3 m/s 751 mm Hg 52%
19:00 +16°C° 0 mm 3 m/s 752 mm Hg 52%
20:00 +14°C° 0 mm 3 m/s 752 mm Hg 52%
21:00 +14°C° 0 mm 3 m/s 752 mm Hg 53%
22:00 +14°C° 0 mm 2 m/s 752 mm Hg 55%
23:00 +14°C° 0 mm 2 m/s 752 mm Hg 56%

4 Ottobre, Domenica

Tempo Temperatura Precipitazioni Vento Pressione Umidità
00:00 +14°C° 0 mm 2 m/s 752 mm Hg 55%
01:00 +14°C° 0 mm 2 m/s 752 mm Hg 55%
02:00 +14°C° 0 mm 2 m/s 752 mm Hg 54%
03:00 +14°C° 0 mm 2 m/s 752 mm Hg 53%
04:00 +14°C° 0 mm 2 m/s 752 mm Hg 52%
05:00 +14°C° 0 mm 2 m/s 752 mm Hg 51%
06:00 +15°C° 0 mm 2 m/s 752 mm Hg 48%
07:00 +16°C° 0 mm 2 m/s 752 mm Hg 45%
08:00 +18°C° 0 mm 1 m/s 752 mm Hg 42%
09:00 +19°C° 0 mm 1 m/s 752 mm Hg 41%
10:00 +21°C° 0 mm 1 m/s 752 mm Hg 39%
11:00 +23°C° 0 mm 1 m/s 752 mm Hg 38%
12:00 +23°C° 0 mm 1 m/s 752 mm Hg 37%
13:00 +24°C° 0 mm 2 m/s 752 mm Hg 36%
14:00 +24°C° 0 mm 2 m/s 752 mm Hg 35%
15:00 +23°C° 0 mm 2 m/s 752 mm Hg 37%
16:00 +21°C° 0 mm 2 m/s 752 mm Hg 40%
17:00 +20°C° 0 mm 2 m/s 752 mm Hg 42%
18:00 +19°C° 0 mm 3 m/s 752 mm Hg 44%
19:00 +19°C° 0 mm 3 m/s 752 mm Hg 45%
20:00 +19°C° 0 mm 3 m/s 753 mm Hg 47%
21:00 +18°C° 0 mm 4 m/s 753 mm Hg 47%
22:00 +16°C° 0 mm 5 m/s 753 mm Hg 47%
23:00 +16°C° 0 mm 5 m/s 753 mm Hg 48%
Mostrare altro